Date String (YYYY-MM-DD hh:mm:ss) UTC,Instrument flags,Ambient pressure (hPa),Sample flow (lpm),Bypass flow (lpm),Sample temperature (°C),Ambient temperature (°C),ASC tube jacket temperature (°C),LED temperature (°C),Box temperature (°C),Sample RH (%),Span deviation,Mass concentration (μg/m³),Mass concentration (μg/m³),Mass concentration (μg/m³)
DateTimeUTC,F1_M11,P_M11,Q1_M11,Q2_M11,T1_M11,T2_M11,T3_M11,T4_M11,T5_M11,U1_M11,ZSPAN_M11,X0_M11,X2_M11,X1_M11
2021-11-10 04:00:00,,0822.4,5.00,0.00,27.8,26.8,00.0,36.9,29.5,15.7,-000.6,0039.56,0016.27,0013.09
2021-11-10 04:01:00,,0822.4,5.00,0.00,27.7,26.8,00.0,36.9,29.5,15.7,-000.7,0039.87,0016.23,0013.09
2021-11-10 04:02:00,,0822.4,5.00,0.00,27.7,26.8,00.0,36.9,29.4,15.7,-000.9,0040.50,0016.20,0013.10
2021-11-10 04:03:00,,0822.4,5.00,0.00,27.7,26.8,00.0,36.9,29.4,15.7,-001.2,0039.22,0016.07,0013.10
2021-11-10 04:04:00,,0822.4,5.00,0.00,27.7,26.8,00.0,36.9,29.4,15.8,-001.4,0040.05,0016.00,0013.09
2021-11-10 04:05:00,,0822.4,5.00,0.00,27.7,26.8,00.0,36.8,29.4,15.8,-001.3,0040.51,0015.94,0013.06
2021-11-10 04:06:00,,0822.4,4.99,0.00,27.7,26.8,00.0,36.8,29.4,15.8,-001.4,0040.75,0015.92,0013.05
2021-11-10 04:07:00,,0822.4,5.01,0.00,27.7,26.8,00.0,36.8,29.4,15.8,-001.8,0041.07,0015.88,0013.04
2021-11-10 04:08:00,,0822.4,4.99,0.00,27.7,26.8,00.0,36.8,29.4,15.8,-002.2,0041.39,0015.87,0013.03
2021-11-10 04:09:00,,0822.4,4.98,0.00,27.6,26.8,00.0,36.8,29.4,15.8,-002.3,0040.78,0015.77,0013.01
2021-11-10 04:10:00,,0822.4,5.01,0.00,27.6,26.8,00.0,36.8,29.4,15.8,-002.3,0041.03,0015.74,0013.00
2021-11-10 04:11:00,,0822.4,5.00,0.00,27.6,26.7,00.0,36.8,29.4,15.8,-002.6,0041.94,0015.80,0012.99
2021-11-10 04:12:00,,0822.4,5.01,0.00,27.6,26.7,00.0,36.8,29.3,15.8,-002.7,0041.57,0015.89,0012.99
2021-11-10 04:13:00,,0822.4,4.99,0.00,27.6,26.7,00.0,36.7,29.3,15.8,-002.5,0042.43,0015.91,0012.96
2021-11-10 04:14:00,,0822.4,4.99,0.00,27.6,26.7,00.0,36.7,29.3,15.8,-002.1,0044.65,0015.93,0012.94
2021-11-10 04:15:00,,0822.4,5.00,0.00,27.6,26.7,00.0,36.7,29.3,15.8,-002.0,0043.23,0015.86,0012.92
2021-11-10 04:16:00,,0822.5,4.99,0.00,27.5,26.6,00.0,36.7,29.3,15.9,-001.9,0042.81,0015.90,0012.92
2021-11-10 04:17:00,,0822.4,5.01,0.00,27.5,26.6,00.0,36.7,29.3,15.9,-001.9,0042.65,0015.85,0012.90
2021-11-10 04:18:00,,0822.4,5.00,0.00,27.5,26.6,00.0,36.7,29.2,15.9,-001.9,0042.47,0015.83,0012.86
2021-11-10 04:19:00,,0822.4,5.00,0.00,27.5,26.6,00.0,36.7,29.2,15.9,-001.9,0042.69,0015.84,0012.86
2021-11-10 04:20:00,,0822.4,5.00,0.00,27.5,26.6,00.0,36.6,29.2,15.9,-001.7,0043.88,0015.89,0012.89
2021-11-10 04:21:00,,0822.4,4.99,0.00,27.5,26.6,00.0,36.6,29.2,15.9,-001.4,0044.85,0015.91,0012.92
2021-11-10 04:22:00,,0822.4,5.01,0.00,27.5,26.6,00.0,36.6,29.3,15.9,-000.9,0043.66,0015.88,0012.96
2021-11-10 04:23:00,,0822.4,5.01,0.00,27.5,26.6,00.0,36.6,29.2,15.9,-000.7,0043.56,0015.84,0012.99
2021-11-10 04:24:00,,0822.4,4.99,0.00,27.5,26.6,00.0,36.6,29.2,15.9,-000.4,0043.08,0015.88,0013.03
2021-11-10 04:25:00,,0822.5,5.00,0.00,27.5,26.6,00.0,36.6,29.2,15.9,-000.7,0042.17,0015.96,0013.06
2021-11-10 04:26:00,,0822.4,5.01,0.00,27.5,26.6,00.0,36.6,29.2,15.9,-001.1,0042.33,0016.04,0013.09
2021-11-10 04:27:00,,0822.4,5.00,0.00,27.4,26.6,00.0,36.6,29.2,16.0,-001.1,0042.53,0016.00,0013.10
2021-11-10 04:28:00,,0822.5,5.00,0.00,27.4,26.5,00.0,36.6,29.1,16.0,-000.8,0041.71,0016.09,0013.16
2021-11-10 04:29:00,,0822.5,4.99,0.00,27.4,26.5,00.0,36.6,29.1,16.0,-000.8,0040.27,0016.15,0013.23
2021-11-10 04:30:00,,0822.4,5.00,0.00,27.4,26.5,00.0,36.5,29.1,16.0,-000.4,0039.71,0016.21,0013.27
2021-11-10 04:31:00,,0822.4,5.00,0.00,27.4,26.5,00.0,36.5,29.2,16.0,-000.7,0039.59,0016.22,0013.28
2021-11-10 04:32:00,,0822.5,5.00,0.00,27.4,26.6,00.0,36.5,29.2,16.0,-000.8,0038.21,0016.23,0013.29
2021-11-10 04:33:00,,0822.6,5.01,0.00,27.4,26.6,00.0,36.5,29.2,16.0,-001.3,0037.90,0016.24,0013.31
2021-11-10 04:34:00,,0822.6,5.00,0.00,27.4,26.6,00.0,36.5,29.2,16.0,-001.9,0038.22,0016.21,0013.31
2021-11-10 04:35:00,,0822.4,5.00,0.00,27.4,26.6,00.0,36.5,29.2,16.0,-002.1,0037.89,0016.19,0013.33
2021-11-10 04:36:00,,0822.4,4.99,0.00,27.4,26.6,00.0,36.5,29.2,16.0,-002.0,0038.64,0016.19,0013.37
2021-11-10 04:37:00,,0822.4,5.00,0.00,27.4,26.6,00.0,36.5,29.2,16.0,-001.8,0039.21,0016.20,0013.40
2021-11-10 04:38:00,,0822.4,5.01,0.00,27.4,26.6,00.0,36.5,29.2,16.0,-001.8,0039.02,0016.20,0013.45
2021-11-10 04:39:00,,0822.4,5.01,0.00,27.4,26.5,00.0,36.5,29.2,16.0,-001.8,0039.34,0016.24,0013.49
2021-11-10 04:40:00,,0822.4,5.00,0.00,27.4,26.5,00.0,36.5,29.1,16.0,-001.8,0039.33,0016.27,0013.53
2021-11-10 04:41:00,,0822.4,4.99,0.00,27.4,26.5,00.0,36.5,29.1,16.0,-001.8,0040.58,0016.27,0013.57
2021-11-10 04:42:00,,0822.4,5.02,0.00,27.4,26.5,00.0,36.5,29.1,16.0,-001.6,0041.07,0016.31,0013.60
2021-11-10 04:43:00,,0822.4,5.01,0.00,27.4,26.5,00.0,36.5,29.1,16.0,-001.6,0040.52,0016.33,0013.64
2021-11-10 04:44:00,,0822.4,4.99,0.00,27.4,26.5,00.0,36.4,29.1,16.0,-001.3,0041.39,0016.39,0013.69
2021-11-10 04:45:00,,0822.4,5.01,0.00,27.4,26.5,00.0,36.4,29.1,16.0,-001.0,0042.50,0016.50,0013.75
2021-11-10 04:46:00,,0822.5,4.99,0.00,27.4,26.5,00.0,36.4,29.1,16.0,-000.8,0043.11,0016.60,0013.81
2021-11-10 04:47:00,,0822.6,5.00,0.00,27.4,26.5,00.0,36.4,29.1,16.0,-000.7,0042.40,0016.64,0013.86
2021-11-10 04:48:00,,0822.6,5.00,0.00,27.4,26.5,00.0,36.4,29.1,16.0,-000.3,0042.62,0016.79,0013.93
2021-11-10 04:49:00,,0822.5,5.01,0.00,27.4,26.5,00.0,36.4,29.1,16.0,-000.2,0043.71,0016.84,0013.94
2021-11-10 04:50:00,,0822.4,5.00,0.00,27.4,26.5,00.0,36.4,29.1,16.0,-000.5,0043.98,0016.87,0013.94
2021-11-10 04:51:00,,0822.4,4.99,0.00,27.4,26.6,00.0,36.4,29.2,15.9,-000.5,0044.47,0016.83,0013.94
2021-11-10 04:52:00,,0822.4,5.00,0.00,27.4,26.6,00.0,36.4,29.2,15.9,-000.4,0043.85,0016.81,0013.94
2021-11-10 04:53:00,,0822.4,4.99,0.00,27.4,26.6,00.0,36.4,29.2,15.9,-000.4,0042.46,0016.74,0013.92
2021-11-10 04:54:00,,0822.4,5.00,0.00,27.4,26.6,00.0,36.4,29.2,16.0,-000.1,0043.66,0016.69,0013.87
2021-11-10 04:55:00,,0822.4,5.01,0.00,27.4,26.6,00.0,36.4,29.2,15.9,-000.3,0043.29,0016.61,0013.80
2021-11-10 04:56:00,,0822.4,5.00,0.00,27.4,26.6,00.0,36.4,29.1,15.9,-000.4,0042.13,0016.56,0013.75
2021-11-10 04:57:00,,0822.4,4.99,0.00,27.4,26.6,00.0,36.4,29.1,16.0,-000.6,0041.42,0016.53,0013.69
2021-11-10 04:58:00,,0822.4,5.00,0.00,27.4,26.5,00.0,36.4,29.1,16.0,-000.5,0041.76,0016.57,0013.65
2021-11-10 04:59:00,,0822.4,5.01,0.00,27.4,26.5,00.0,36.4,29.1,16.0,-000.5,0042.34,0016.40,0013.60
